This is the latest recevied weather packets stored in our database for station/object K9RJT. If no packets are shown the sender has not sent any weather packets the latest 10 day(s).
| Time | Temp. | Humidity | Pressure | Rain* | Wind** | Luminosity | Snow |
|---|---|---|---|---|---|---|---|
| 1778016196 | 26.67° C | 31% | 1007.8 hPa | 0 mm | - | 657 W/m² | - |
| 1778015892 | 25.56° C | 34% | 1007.9 hPa | 0 mm | - | 673 W/m² | - |
| 1778015590 | 26.11° C | 34% | 1008.1 hPa | 0 mm | - | 690 W/m² | - |
| 1778015286 | 26.11° C | 34% | 1007.9 hPa | 0 mm | - | 676 W/m² | - |
| 1778014983 | 26.11° C | 33% | 1007.9 hPa | 0 mm | - | 680 W/m² | - |
| 1778014680 | 26.11° C | 34% | 1007.9 hPa | 0 mm | - | 690 W/m² | - |
| 1778014379 | 25.56° C | 34% | 1007.8 hPa | 0 mm | - | 140 W/m² | - |
| 1778014075 | 25.56° C | 35% | 1007.8 hPa | 0 mm | - | 727 W/m² | - |
| 1778013773 | 25.56° C | 38% | 1007.6 hPa | 0 mm | - | 708 W/m² | - |
| 1778013470 | 25.56° C | 38% | 1007.8 hPa | 0 mm | - | 158 W/m² | - |
| 1778013167 | 24.44° C | 40% | 1007.9 hPa | 0 mm | - | 726 W/m² | - |
| 1778012863 | 24.44° C | 39% | 1008.1 hPa | 0 mm | - | 692 W/m² | - |
| 1778012559 | 24.44° C | 41% | 1008.1 hPa | 0 mm | - | 698 W/m² | - |
| 1778012255 | 25° C | 41% | 1008.2 hPa | 0 mm | - | 696 W/m² | - |
| 1778011953 | 24.44° C | 40% | 1008.1 hPa | 0 mm | - | 703 W/m² | - |
| 1778011652 | 24.44° C | 41% | 1008.1 hPa | 0 mm | - | 697 W/m² | - |
| 1778011348 | 23.89° C | 42% | 1008.2 hPa | 0 mm | - | 692 W/m² | - |
| 1778011043 | 24.44° C | 42% | 1008.5 hPa | 0 mm | - | 693 W/m² | - |
| 1778010741 | 24.44° C | 42% | 1008.6 hPa | 0 mm | - | 694 W/m² | - |
| 1778010439 | 23.89° C | 41% | 1008.6 hPa | 0 mm | - | 698 W/m² | - |
| 1778010135 | 23.89° C | 42% | 1008.5 hPa | 0 mm | - | 700 W/m² | - |
| 1778009831 | 23.33° C | 43% | 1008.5 hPa | 0 mm | - | 694 W/m² | - |
| 1778009528 | 23.33° C | 43% | 1008.6 hPa | 0 mm | - | 692 W/m² | - |
| 1778009227 | 22.78° C | 44% | 1008.7 hPa | 0 mm | - | 691 W/m² | - |
| 1778008924 | 23.33° C | 43% | 1008.8 hPa | 0 mm | - | 691 W/m² | - |
* Rain latest hour (hover to see other rain measurements)
** Current wind speed in m/s (hover to see current wind gust speed)